�������l�o���
Date,Time,MP-1(��Sv/h),MP-2(��Sv/h),MP-3(��Sv/h),MP-4(��Sv/h),MP-5(��Sv/h),MP-6(��Sv/h),MP-7(��Sv/h),MP-8(��Sv/h),����,����(m/s),���J
2019/10/18,00:00,0.718,1.026,0.678,1.256,0.894,0.414,0.716,0.680,�k�k��,0.9,��
2019/10/18,00:10,0.719,1.027,0.679,1.254,0.893,0.411,0.715,0.681,�k,1.1,��
2019/10/18,00:20,0.718,1.025,0.677,1.255,0.892,0.413,0.716,0.681,�k�k��,1.3,��
2019/10/18,00:30,0.719,1.027,0.679,1.255,0.893,0.413,0.716,0.681,�k�k��,1.7,��
2019/10/18,00:40,0.718,1.027,0.679,1.255,0.892,0.413,0.720,0.680,�k,2.6,��
2019/10/18,00:50,0.720,1.028,0.678,1.254,0.894,0.412,0.716,0.680,�k,2.8,��
2019/10/18,01:00,0.720,1.026,0.678,1.254,0.893,0.413,0.718,0.680,�k,3.5,��
2019/10/18,01:10,0.719,1.027,0.678,1.254,0.892,0.414,0.715,0.680,�k,3.6,��
2019/10/18,01:20,0.719,1.027,0.677,1.255,0.891,0.412,0.717,0.682,�k,3.8,��
2019/10/18,01:30,0.719,1.027,0.678,1.255,0.893,0.412,0.715,0.681,�k,3.6,��
2019/10/18,01:40,0.719,1.027,0.677,1.257,0.894,0.413,0.715,0.682,�k,4.0,��
2019/10/18,01:50,0.720,1.026,0.678,1.255,0.894,0.413,0.715,0.683,�k�k��,4.1,��
2019/10/18,02:00,0.721,1.029,0.679,1.256,0.892,0.411,0.714,0.681,�k�k��,4.9,��
2019/10/18,02:10,0.718,1.028,0.678,1.256,0.893,0.412,0.715,0.681,�k�k��,5.0,��
2019/10/18,02:20,0.719,1.025,0.679,1.255,0.895,0.412,0.715,0.681,�k�k��,4.9,��
2019/10/18,02:30,0.719,1.024,0.678,1.256,0.893,0.412,0.715,0.681,�k��,5.3,��
2019/10/18,02:40,0.718,1.027,0.678,1.254,0.892,0.411,0.715,0.682,�k�k��,5.2,��
2019/10/18,02:50,0.718,1.024,0.677,1.255,0.890,0.411,0.715,0.681,�k�k��,5.6,��
2019/10/18,03:00,0.717,1.026,0.676,1.255,0.892,0.412,0.714,0.682,�k�k��,5.5,��
2019/10/18,03:10,0.717,1.025,0.676,1.253,0.891,0.412,0.715,0.681,�k�k��,5.2,��
2019/10/18,03:20,0.717,1.025,0.676,1.253,0.892,0.412,0.713,0.680,�k�k��,5.5,��
2019/10/18,03:30,0.718,1.025,0.677,1.251,0.893,0.411,0.715,0.680,�k�k��,5.5,��
2019/10/18,03:40,0.718,1.026,0.678,1.255,0.891,0.411,0.714,0.681,�k�k��,4.9,��
2019/10/18,03:50,0.719,1.025,0.678,1.253,0.892,0.411,0.715,0.681,�k��,5.5,��
2019/10/18,04:00,0.717,1.025,0.676,1.254,0.891,0.409,0.713,0.679,�k��,5.0,��
2019/10/18,04:10,0.718,1.028,0.677,1.253,0.893,0.410,0.715,0.682,�k��,4.9,��
2019/10/18,04:20,0.719,1.027,0.678,1.254,0.889,0.410,0.714,0.679,�k��,4.2,��
2019/10/18,04:30,0.717,1.026,0.679,1.253,0.892,0.412,0.714,0.680,�k��,3.9,��
2019/10/18,04:40,0.718,1.026,0.680,1.254,0.892,0.410,0.715,0.681,�k�k��,3.6,��
2019/10/18,04:50,0.718,1.026,0.677,1.254,0.893,0.410,0.714,0.680,�k�k��,6.1,��
2019/10/18,05:00,0.716,1.028,0.679,1.255,0.892,0.410,0.715,0.680,�k�k��,5.5,��
2019/10/18,05:10,0.718,1.025,0.679,1.255,0.892,0.412,0.714,0.681,�k�k��,5.2,��
2019/10/18,05:20,0.719,1.028,0.678,1.256,0.893,0.410,0.715,0.680,�k�k��,5.2,��
2019/10/18,05:30,0.717,1.024,0.677,1.255,0.891,0.410,0.715,0.681,�k�k��,4.6,��
2019/10/18,05:40,0.717,1.025,0.677,1.255,0.893,0.411,0.715,0.682,�k�k��,4.7,��
2019/10/18,05:50,0.717,1.026,0.678,1.255,0.893,0.411,0.715,0.682,�k�k��,4.7,��
2019/10/18,06:00,0.716,1.024,0.678,1.256,0.891,0.411,0.716,0.680,�k�k��,3.8,��
2019/10/18,06:10,0.717,1.025,0.676,1.256,0.893,0.410,0.714,0.681,�k�k��,4.3,��
2019/10/18,06:20,0.717,1.026,0.678,1.255,0.893,0.410,0.715,0.681,�k�k��,3.6,��
2019/10/18,06:30,0.718,1.027,0.678,1.254,0.894,0.411,0.717,0.681,�k�k��,4.2,��
2019/10/18,06:40,0.718,1.028,0.678,1.254,0.893,0.411,0.714,0.682,�k�k��,4.7,��
2019/10/18,06:50,0.718,1.024,0.678,1.254,0.893,0.412,0.716,0.679,�k�k��,4.7,��
2019/10/18,07:00,0.718,1.028,0.679,1.255,0.891,0.413,0.716,0.682,�k�k��,5.5,��
2019/10/18,07:10,0.717,1.027,0.680,1.255,0.892,0.410,0.715,0.680,�k�k��,6.1,��
2019/10/18,07:20,0.717,1.026,0.677,1.255,0.891,0.411,0.715,0.681,�k�k��,5.0,��
2019/10/18,07:30,0.718,1.025,0.679,1.258,0.891,0.409,0.715,0.680,�k�k��,4.0,��
2019/10/18,07:40,0.720,1.026,0.677,1.255,0.892,0.410,0.714,0.680,�k�k��,3.9,��
2019/10/18,07:50,0.719,1.026,0.679,1.256,0.892,0.410,0.714,0.680,�k�k��,4.2,��
2019/10/18,08:00,0.719,1.025,0.679,1.256,0.892,0.409,0.716,0.681,�k�k��,5.5,��
2019/10/18,08:10,0.718,1.028,0.678,1.255,0.893,0.409,0.716,0.680,�k�k��,4.4,��
2019/10/18,08:20,0.718,1.024,0.676,1.252,0.892,0.408,0.715,0.681,�k�k��,3.8,��
2019/10/18,08:30,0.717,1.023,0.674,1.255,0.893,0.406,0.715,0.681,�k��,4.0,��
2019/10/18,08:40,0.717,1.023,0.678,1.255,0.892,0.406,0.716,0.682,�k��,3.3,��
2019/10/18,08:50,0.719,1.022,0.676,1.257,0.890,0.408,0.717,0.680,�k�k��,3.0,��
2019/10/18,09:00,0.717,1.022,0.677,1.256,0.893,0.409,0.713,0.681,�k�k��,3.5,��
2019/10/18,09:10,0.719,1.022,0.678,1.256,0.891,0.410,0.716,0.683,�k�k��,3.6,��
2019/10/18,09:20,0.720,1.021,0.681,1.257,0.894,0.409,0.716,0.680,�k�k��,3.0,��
2019/10/18,09:30,0.717,1.022,0.677,1.254,0.893,0.411,0.715,0.682,�k�k��,3.5,��
2019/10/18,09:40,0.720,1.020,0.677,1.255,0.894,0.410,0.714,0.682,�k�k��,3.5,��
2019/10/18,09:50,0.718,1.020,0.677,1.257,0.895,0.410,0.716,0.681,�k�k��,3.8,��
2019/10/18,10:00,0.719,1.019,0.676,1.255,0.893,0.410,0.713,0.679,�k�k��,3.3,��
2019/10/18,10:10,0.720,1.021,0.675,1.256,0.894,0.411,0.715,0.680,�k�k��,3.8,��
2019/10/18,10:20,0.719,1.023,0.673,1.259,0.890,0.411,0.715,0.680,�k�k��,3.1,��
2019/10/18,10:30,0.718,1.019,0.674,1.256,0.892,0.410,0.715,0.679,�k�k��,2.3,��
2019/10/18,10:40,0.719,1.024,0.677,1.256,0.893,0.410,0.715,0.680,�k�k��,2.4,��
2019/10/18,10:50,0.719,1.022,0.679,1.256,0.893,0.411,0.715,0.681,�k�k��,2.6,��
2019/10/18,11:00,0.718,1.020,0.678,1.256,0.891,0.410,0.717,0.681,�k�k��,2.8,��
2019/10/18,11:10,0.719,1.022,0.677,1.257,0.890,0.408,0.715,0.680,�k�k��,3.1,��
2019/10/18,11:20,0.719,1.021,0.678,1.256,0.891,0.410,0.715,0.680,�k�k��,2.5,��
2019/10/18,11:30,0.717,1.021,0.676,1.258,0.893,0.410,0.716,0.678,�k�k��,2.6,��
2019/10/18,11:40,0.718,1.024,0.676,1.253,0.893,0.409,0.715,0.678,�k��,3.4,��
2019/10/18,11:50,0.716,1.023,0.677,1.257,0.890,0.409,0.715,0.679,�k��,3.1,��
2019/10/18,12:00,0.718,1.027,0.678,1.255,0.892,0.410,0.714,0.681,�k�k��,2.6,��
2019/10/18,12:10,0.720,1.028,0.680,1.257,0.891,0.411,0.715,0.681,�k�k��,2.9,��
2019/10/18,12:20,0.718,1.027,0.680,1.258,0.892,0.409,0.716,0.680,�k�k��,2.9,��
2019/10/18,12:30,0.720,1.028,0.678,1.255,0.893,0.410,0.717,0.680,�k�k��,2.4,��
2019/10/18,12:40,0.718,1.027,0.678,1.259,0.890,0.409,0.714,0.680,�k�k��,2.2,��
2019/10/18,12:50,0.718,1.027,0.677,1.258,0.892,0.410,0.715,0.679,�k��,2.3,��
2019/10/18,13:00,0.719,1.026,0.678,1.256,0.891,0.411,0.715,0.679,�k�k��,2.0,��
2019/10/18,13:10,0.720,1.023,0.678,1.254,0.892,0.410,0.715,0.678,�k�k��,1.8,��
2019/10/18,13:20,0.717,1.023,0.678,1.258,0.894,0.410,0.715,0.681,�k��,2.4,��
2019/10/18,13:30,0.720,1.021,0.678,1.256,0.893,0.409,0.715,0.680,�k�k��,2.2,��
2019/10/18,13:40,0.720,1.023,0.677,1.258,0.893,0.411,0.715,0.681,�k��,2.2,��
2019/10/18,13:50,0.718,1.021,0.679,1.257,0.893,0.410,0.715,0.679,�k�k��,2.0,��
2019/10/18,14:00,0.719,1.023,0.679,1.258,0.893,0.411,0.716,0.681,�k�k��,2.2,��
2019/10/18,14:10,0.719,1.024,0.678,1.257,0.892,0.411,0.715,0.680,�k�k��,1.9,��
2019/10/18,14:20,0.720,1.022,0.679,1.258,0.895,0.409,0.716,0.680,�k�k��,2.2,��
2019/10/18,14:30,0.720,1.019,0.680,1.257,0.893,0.410,0.716,0.680,�k�k��,1.9,��
2019/10/18,14:40,0.719,1.022,0.678,1.257,0.892,0.408,0.715,0.682,�k�k��,1.5,��
2019/10/18,14:50,0.719,1.023,0.679,1.257,0.894,0.410,0.717,0.677,�k�k��,1.2,��
2019/10/18,15:00,0.719,1.023,0.680,1.257,0.891,0.411,0.716,0.681,�k,1.5,��
2019/10/18,15:10,0.718,1.026,0.678,1.258,0.891,0.409,0.715,0.680,�k,2.1,��
2019/10/18,15:20,0.718,1.025,0.679,1.259,0.893,0.411,0.716,0.680,�k�k��,2.5,��
2019/10/18,15:30,0.720,1.027,0.678,1.260,0.894,0.411,0.716,0.680,�k�k��,1.9,��
2019/10/18,15:40,0.721,1.025,0.678,1.257,0.893,0.410,0.716,0.682,�k�k��,1.6,��
2019/10/18,15:50,0.720,1.027,0.679,1.258,0.893,0.410,0.716,0.683,�k��,1.3,��
2019/10/18,16:00,0.720,1.025,0.679,1.257,0.895,0.410,0.715,0.680,�k�k��,2.0,��
2019/10/18,16:10,0.720,1.026,0.679,1.258,0.894,0.411,0.716,0.681,�k�k��,2.5,��
2019/10/18,16:20,0.719,1.024,0.679,1.257,0.893,0.410,0.715,0.683,�k�k��,1.6,��
2019/10/18,16:30,0.718,1.030,0.679,1.257,0.894,0.411,0.715,0.680,�k�k��,1.5,��
2019/10/18,16:40,0.720,1.029,0.678,1.257,0.894,0.412,0.715,0.681,�k�k��,2.5,��
2019/10/18,16:50,0.721,1.028,0.678,1.256,0.896,0.408,0.716,0.682,�k�k��,2.2,��
2019/10/18,17:00,0.718,1.027,0.680,1.256,0.894,0.411,0.716,0.682,�k�k��,1.9,��
2019/10/18,17:10,0.720,1.029,0.679,1.259,0.896,0.410,0.716,0.681,�k�k��,1.9,��
2019/10/18,17:20,0.719,1.028,0.679,1.257,0.895,0.411,0.717,0.682,�k�k��,2.1,��
2019/10/18,17:30,0.719,1.030,0.680,1.258,0.894,0.412,0.716,0.681,�k��,1.4,��
2019/10/18,17:40,0.721,1.028,0.680,1.260,0.893,0.412,0.717,0.682,�k�k��,1.8,��
2019/10/18,17:50,0.720,1.029,0.679,1.256,0.895,0.411,0.716,0.680,�k��,2.3,��
2019/10/18,18:00,0.719,1.027,0.680,1.257,0.895,0.411,0.716,0.681,�k�k��,1.9,��
2019/10/18,18:10,0.719,1.026,0.679,1.258,0.895,0.411,0.717,0.680,�k�k��,1.3,��
2019/10/18,18:20,0.719,1.029,0.681,1.258,0.897,0.411,0.716,0.680,�k�k��,1.6,��
2019/10/18,18:30,0.719,1.028,0.680,1.260,0.895,0.412,0.716,0.682,�k�k��,1.4,��
2019/10/18,18:40,0.719,1.028,0.680,1.256,0.894,0.411,0.718,0.682,�k�k��,1.8,��
2019/10/18,18:50,0.719,1.027,0.679,1.258,0.894,0.412,0.716,0.682,�k�k��,1.9,��
2019/10/18,19:00,0.720,1.029,0.679,1.257,0.895,0.413,0.716,0.681,�k�k��,2.0,��
2019/10/18,19:10,0.720,1.027,0.679,1.259,0.895,0.412,0.716,0.682,�k��,1.9,��
2019/10/18,19:20,0.720,1.027,0.678,1.260,0.896,0.412,0.719,0.680,�k�k��,1.2,��
2019/10/18,19:30,0.719,1.029,0.680,1.257,0.894,0.411,0.716,0.680,�k��,2.4,��
2019/10/18,19:40,0.719,1.029,0.681,1.256,0.895,0.412,0.717,0.679,�k�k��,2.0,��
2019/10/18,19:50,0.720,1.029,0.680,1.258,0.896,0.412,0.717,0.680,�k�k��,1.8,��
2019/10/18,20:00,0.720,1.028,0.679,1.258,0.894,0.412,0.717,0.683,�k�k��,1.4,��
2019/10/18,20:10,0.721,1.027,0.680,1.257,0.895,0.412,0.717,0.680,�k��,1.4,��
2019/10/18,20:20,0.721,1.028,0.680,1.258,0.893,0.410,0.717,0.682,�k�k��,1.3,��
2019/10/18,20:30,0.720,1.029,0.680,1.259,0.894,0.412,0.715,0.683,-,CALM,��
2019/10/18,20:40,0.720,1.028,0.680,1.259,0.894,0.410,0.716,0.682,�k��,0.9,�L
2019/10/18,20:50,0.721,1.027,0.680,1.260,0.894,0.413,0.716,0.680,�k,1.3,�L
2019/10/18,21:00,0.723,1.029,0.680,1.258,0.896,0.412,0.716,0.683,�k�k��,1.6,�L
2019/10/18,21:10,0.719,1.030,0.681,1.259,0.893,0.412,0.717,0.682,�k�k��,1.3,�L
2019/10/18,21:20,0.720,1.026,0.679,1.259,0.896,0.411,0.715,0.682,�k��,1.3,�L
2019/10/18,21:30,0.719,1.029,0.680,1.259,0.896,0.412,0.717,0.684,�k��,2.0,�L
2019/10/18,21:40,0.719,1.028,0.679,1.259,0.895,0.411,0.717,0.681,���k��,1.7,�L
2019/10/18,21:50,0.718,1.027,0.681,1.259,0.895,0.412,0.717,0.682,�k��,1.4,�L
2019/10/18,22:00,0.718,1.027,0.682,1.258,0.894,0.412,0.717,0.681,�k��,1.9,�L
2019/10/18,22:10,0.718,1.027,0.680,1.256,0.892,0.412,0.718,0.681,�k��,1.8,�L
2019/10/18,22:20,0.719,1.027,0.679,1.259,0.894,0.412,0.717,0.682,�k��,1.2,�L
2019/10/18,22:30,0.719,1.027,0.682,1.257,0.895,0.413,0.715,0.682,�k��,1.8,�L
2019/10/18,22:40,0.717,1.026,0.680,1.257,0.894,0.413,0.716,0.681,�k��,1.7,�L
2019/10/18,22:50,0.719,1.026,0.680,1.256,0.894,0.411,0.716,0.682,�k�k��,2.1,��
2019/10/18,23:00,0.719,1.027,0.680,1.257,0.893,0.412,0.716,0.682,�k��,2.3,�L
2019/10/18,23:10,0.720,1.024,0.681,1.260,0.891,0.412,0.716,0.681,�k�k��,2.5,�L
2019/10/18,23:20,0.718,1.025,0.678,1.258,0.891,0.413,0.715,0.681,�k�k��,2.3,�L
2019/10/18,23:30,0.717,1.022,0.679,1.257,0.891,0.412,0.716,0.681,�k�k��,2.8,�L
2019/10/18,23:40,0.718,1.019,0.679,1.256,0.890,0.412,0.713,0.678,�k�k��,2.9,�L
2019/10/18,23:50,0.715,1.019,0.678,1.255,0.887,0.411,0.714,0.680,�k�k��,3.8,�L
